Flag for U.S.A. Weather past 2 weeks in St. Petersburg, Florida, U.S.A.

Now
81 °F

Passing clouds.


Feels Like: 87 °F
Forecast: 79 / 83 °F
Wind: No wind

Location: Whitted Airport

Current Time: Jul 29, 2015 at 11:06:54 PM

Latest Report: Jul 29, 2015 at 9:53 PM


Visibility: 10 mi

Pressure: 29.97 "Hg

Humidity: 85%

Dew point: 76 °F

Location of St. PetersburgLocation

Historic Weather in St. Petersburg — Graph

°F

St. Petersburg temperature yesterday

Maximum temperature yesterday: 85 °F (at 2:53 PM)
Minimum temperature yesterday: 79 °F (at 4:53 AM)
Average temperature yesterday: 82 °F

Past Weeks' High & Low Weather Summary

 TemperatureHumidityPressure
High88 °F (Jul 15, 2:53 PM)97% (Jul 25, 10:53 AM)30.06 "Hg (Jul 25, 10:53 AM)
Low75 °F (Jul 15, 5:53 PM)57% (Jul 15, 1:53 PM)29.83 "Hg (Jul 26, 3:53 AM)
Average82 °F80%29.96 "Hg
* Reported Jul 14 9:53 PM — Jul 29 9:53 PM, St. Petersburg, Weather by CustomWeather, © 2015

Note: Actual official high and low records may vary slightly from our data, if they occured in-between our weather recording intervals... More about our weather records

Advertising

St. Petersburg weather history for previous 24 hours

 ConditionsComfort  
Time TempWeatherWind HumidityBarometerVisibility
9:53 PM
Wed, Jul 29
81 °FPassing clouds.No wind85%29.97 "Hg10 mi
8:53 PM82 °FSunny.5 mph85%29.96 "Hg10 mi
7:53 PM82 °FSunny.7 mph82%29.95 "Hg10 mi
6:53 PM82 °FSunny.7 mph85%29.93 "Hg10 mi
5:53 PM81 °FPassing clouds.6 mph85%29.95 "Hg10 mi
4:53 PM80 °FLight rain. Broken clouds.9 mph81%29.95 "Hg10 mi
3:53 PM81 °FSunny.9 mph82%29.96 "Hg10 mi
2:53 PM79 °FPartly sunny.6 mph82%30.00 "Hg10 mi
2:01 PM78 °FThundershowers. Mostly cloudy.13 mph79%30.00 "Hg10 mi
12:53 PM82 °FThundershowers. Broken clouds.14 mph72%29.97 "Hg10 mi
11:53 AM81 °FMostly cloudy.9 mph85%30.00 "Hg3 mi
10:53 AM85 °FMostly cloudy.9 mph80%29.99 "Hg10 mi
9:53 AM86 °FPassing clouds.No wind72%29.98 "Hg10 mi
8:53 AM82 °FPartly sunny.5 mph85%29.97 "Hg10 mi
7:53 AM82 °FScattered clouds.5 mph85%29.95 "Hg10 mi
6:53 AM82 °FPassing clouds.No wind85%29.94 "Hg10 mi
5:53 AM81 °FPassing clouds.6 mph88%29.93 "Hg10 mi
4:53 AM81 °FClear.7 mph85%29.93 "Hg10 mi
3:53 AM81 °FClear.3 mph91%29.93 "Hg10 mi
2:53 AM82 °FClear.5 mph85%29.93 "Hg10 mi
1:53 AM82 °FPassing clouds.7 mph85%29.95 "Hg10 mi
12:53 AM82 °FPassing clouds.7 mph88%29.96 "Hg10 mi
11:53 PM
Tue, Jul 28
82 °FClear.3 mph88%29.96 "Hg10 mi
Weather by CustomWeather, © 2015

See weather overviewHow to use our weather pages